Weather Roundup
Issued by NWS Chicago, IL

Home | Current Version | Previous Version | Text Only | Print | Product List | Glossary Off
Versions: 1 2 3 4 5 6 7 8 9 10 11 12 13 14 15 16 17 18 19 20 21 22 23 24 25 26 27 28 29 30 31 32 33 34 35 36 37 38 39 40 41 42 43 44 45 46 47 48 49 50

000
NZUS59 KLOT 291103
HRRLOT

CHICAGO AREA WEATHER ROUNDUP
NATIONAL WEATHER SERVICE CHICAGO/ROMEOVILLE IL
600 AM CDT FRI APR 29 2016

NOTE: "FAIR" INDICATES FEW OR NO CLOUDS BELOW 12,000 FEET WITH NO
SIGNIFICANT WEATHER AND/OR OBSTRUCTIONS TO VISIBILITY.

* THESE STATIONS ARE NOT UNDER NWS QUALITY CONTROL. THEY ALSO MAY NOT
  REPORT WEATHER SUCH AS PRECIPITATION OR FOG.

ILZ005-006-012>014-019>023-291200-
NORTHEAST ILLINOIS

CITY           SKY/WX    TMP DP  RH WIND       PRES   REMARKS
OHARE          CLOUDY    42  41  96 N7        30.04R FOG
MIDWAY         CLOUDY    45  41  86 NW10      30.05R FOG
AURORA         CLOUDY    44  41  89 NW8       30.07R
LANSING*       CLOUDY    45  43  93 CALM      30.04R FOG
WAUKEGAN       CLOUDY    40  39  97 N6        30.05R FOG
DUPAGE AIRPORT CLOUDY    43  39  86 N7        30.05R
WHEELING       CLOUDY    42  40  92 N7        30.06R FOG
$$

WIZ051-052-058>065-066-070>072-291200-
SOUTHEAST WISCONSIN

CITY           SKY/WX    TMP DP  RH WIND       PRES   REMARKS
MILWAUKEE      CLOUDY    40  37  89 N7        30.07R
KENOSHA*       CLOUDY    40  38  93 N8        30.06R
RACINE*        CLOUDY    40  37  89 N6        30.07R
BURLINGTON     CLOUDY    39  38  97 N5        30.07R
WAUKESHA       CLOUDY    37  37 100 NW3       30.08R
$$

INZ001>003-010>013-019-020-291200-
NORTHWEST INDIANA

CITY           SKY/WX    TMP DP  RH WIND       PRES   REMARKS
GARY*          CLOUDY    45  45 100 N3        30.04R FOG
MICHIGAN CITY* NOT AVBL
RENSSELAER*    NOT AVBL
VALPARAISO     CLOUDY    43  42  97 NW8       30.04R FOG
$$

LMZ740>746-291200-
SOUTHERN LAKE MICHIGAN

STATION/POSITION TIME  SKY/WX   TEMP WIND        PRES    VSBY
                                AIR  DIR/SP/G
                 (UTC)          (F)  (DEG/KT/KT) (MB)    (MI)
HARRISON CRIB    1000            43  340/ 17/ 18   N/A
BURNHAM HARBOR   1100            43  340/  6/ 11   N/A
CALUMET HARBOR   1000            44  320/  3/  7 1016.1R
BURNS HARBOR     1015            43  320/ 10/ 13 1017.3R
MICHIGAN CITY    1000            42  250/  4/  5   N/A
$$

ABBREVIATIONS USED IN REMARKS
   TC - TEMPERATURE IN CELSIUS
  WCI - WIND CHILL INDEX
   HX - HEAT INDEX
  VSB - VISIBILITY
$$



USA.gov is the U.S. government's official web portal to all federal, state and local government web resources and services.